Weather in Golovino

Russia / Jewish Autonomous Oblast     48°12′20″N   133°11′58″E
temp.,
°C
wind,
m/s
gust,
m/s
humid.,
%
clouds,
%
prec.,
mm/h
press.,
hPa
HPBL,
m
23 april, fri
fri2301:00+15sw4844100 0.0 1019139
04:00+14ssw3551100 0.0 101980
07:00+12ssw3648100 0.0 1019133
10:00+16wsw4539100 0.0 1020472
13:00+20nw3431100 0.0 10191485
16:00+21w8838100 0.0 10182483
19:00+15wnw7105769 0.0 1020766
22:00+12wnw71243100 0.0 1021613
24 april, sat
sat2401:00+10wnw7113339 0.0 1022512
04:00+8nnw593382 0.0 1022440
07:00+5nw5936100 0.0 1023514
10:00+8nnw562583 0.0 10231284
13:00+11nw57180 0.0 10212039
16:00+13nw101219100 0.0 10183558
19:00+10nw813205 0.0 10193373
22:00+8nw7132421 0.0 1019595
25 april, sun
sun2501:00+6nw6113179 0.0 1018405
04:00+3nw611535 0.1 10171223
07:00+3nnw712420 0.0 10191239
10:00+6n56290 0.0 10201682
13:00+9nnw481998 0.0 10203306
16:00+11n69137 0.0 10183412
19:00+11nnw47160 0.0 10182516
22:00+7wnw34255 0.0 102062
26 april, mon
mon2601:00+5wnw34315 0.0 101949
04:00+3w353315 0.0 101875
07:00+3wsw383575 0.0 1018164
10:00+10w56226 0.0 1018701
13:00+14w34225 0.0 10151869
16:00+16wsw442182 0.0 10132070
19:00+15sw342564 0.0 1012351
22:00+11sse3328100 0.0 101228
27 april, tue
tue2701:00+10s51132100 0.0 1011202
04:00+8s51145100 0.0 1009274
07:00+7s5115999 0.0 1008408
10:00+14ssw4646100 0.0 1008700
13:00+19ssw4833100 0.0 10062144
16:00+20s71033100 0.0 10032700
19:00+13wsw51070100 0.0 1005660
22:00+11sw3687100 1.2 1005317